Regional Weather Roundup
Issued by NWS

Current Version | Previous Version | Text Only | Print | Product List | Glossary On
Versions: 1 2 3 4 5 6 7 8 9 10 11 12 13 14 15 16 17 18 19 20 21 22 23 24 25 26 27
000
ASUS42 KFFC 230603
RWRGA
WEATHER ROUNDUP FOR GEORGIA
NATIONAL WEATHER SERVICE PEACHTREE CITY GA
200 AM EDT WED APR 23 2014

NOTE: "FAIR" INDICATES FEW OR NO CLOUDS BELOW 12,000 FEET WITH NO
SIGNIFICANT WEATHER AND/OR OBSTRUCTIONS TO VISIBILITY.

* = USE WITH CAUTION. THE STATIONS MARKED WITH AN ASTERISK MAY NOT
REPORT WEATHER SUCH AS PRECIPITATION, FOG, OR THUNDER AND ARE NOT
QUALITY CONTROLLED BY NWS.

THE REMARK "TC" DENOTES TEMPERATURE READING IN DEGREES CELSIUS.

GAZ001>058-230700-
NORTH GEORGIA

CITY           SKY/WX    TMP DP  RH WIND       PRES   REMARKS
ATLANTA        FAIR      61  59  93 NW7       29.87F
6HR MIN TEMP:  60; 6HR MAX TEMP:  65;

ATHENS         FAIR      60  58  92 NW6       29.84S
6HR MIN TEMP:  59; 6HR MAX TEMP:  65;

CHAMBLEE       FAIR      58  56  93 W3        29.87F
6HR MIN TEMP:  57; 6HR MAX TEMP:  65;

PEACHTREE CITY FAIR      55  53  93 CALM      29.88F
6HR MIN TEMP:  54; 6HR MAX TEMP:  67;

ROME           FOG       56  56 100 CALM      29.88S VSB 1/4
6HR MIN TEMP:  55; 6HR MAX TEMP:  66;

WEST ATLANTA   FAIR      57  55  93 CALM      29.87F
6HR MIN TEMP:  56; 6HR MAX TEMP:  66;

GAINESVILLE    FAIR      60  59  96 W7        29.87F FOG
6HR MIN TEMP:  60; 6HR MAX TEMP:  66;

CARTERSVILLE   FOG       56  55  97 CALM      29.89S VSB 1/2
6HR MIN TEMP:  55; 6HR MAX TEMP:  64;



CITY           SKY/WX    TMP DP  RH WIND       PRES   REMARKS
DALTON*        MOCLDY    55  55 100 N3        29.89S FOG
MARIETTA       FAIR      59  59 100 W7        29.87F
$$

GAZ059>098-102>109-230700-
CENTRAL GEORGIA

CITY           SKY/WX    TMP DP  RH WIND       PRES   REMARKS
AUGUSTA-BUSH   FAIR      57  55  93 CALM      29.81F
6HR MIN TEMP:  56; 6HR MAX TEMP:  67; 6HR PCP: TRACE;

AUGUSTA-DANIEL FAIR      64  60  87 W6        29.82F
6HR MIN TEMP:  64; 6HR MAX TEMP:  67;

COLUMBUS       FAIR      61  58  90 CALM      29.88F
6HR MIN TEMP:  61; 6HR MAX TEMP:  69;

MACON          FOG       56  56 100 W3        29.86F VSB 1/4
6HR MIN TEMP:  56; 6HR MAX TEMP:  65;

ROBINS AFB     CLEAR     59  59 100 CALM      29.86S FOG


CITY           SKY/WX    TMP DP  RH WIND       PRES   REMARKS
LAGRANGE*      FOG       56  56  99 CALM      29.89F VSB 1
SYLVANIA*      FAIR      64  62  91 W6        29.83S FOG
MILLEDGEVILLE* FAIR      61 N/A N/A CALM      29.85S HAZE
$$

GAZ099>101-110>166-230700-
SOUTH GEORGIA

CITY           SKY/WX    TMP DP  RH WIND       PRES   REMARKS
SAVANNAH       FAIR      63  60  90 W6        29.83S FOG
6HR MIN TEMP:  63; 6HR MAX TEMP:  77; 6HR PCP:  0.16;

VALDOSTA       FAIR      62  57  83 CALM      29.88F
6HR MIN TEMP:  62; 6HR MAX TEMP:  77; 6HR PCP: TRACE;

ALMA           FAIR      61  59  93 CALM      29.86F FOG
6HR MIN TEMP:  61; 6HR MAX TEMP:  75;

ST SIMONS      LGT RAIN  65  61  87 SW7       29.85S
6HR MIN TEMP:  65; 6HR MAX TEMP:  75; 6HR PCP: TRACE;

FT STEWART     FAIR      61  61 100 W6        29.82F
ALBANY         CLOUDY    65  64  97 SW3       29.90F FOG
HUNTER AFB     FAIR      62  62 100 W3        29.81S
MOODY AFB      MOCLDY    64  62  92 W2        29.87F
BRUNSWICK      FAIR      64  61  88 W7        29.86S


CITY           SKY/WX    TMP DP  RH WIND       PRES   REMARKS
BAINBRIDGE*    FAIR      64  61  88 W3        29.90S
MOULTRIE*      FAIR      64  64 100 CALM      29.90F
VIDALIA*       CLOUDY    63  61  94 SW5       29.84F FOG
DOUGLAS*         N/A     63  63 100 CALM      29.89S
$$



USA.gov is the U.S. government's official web portal to all federal, state and local government web resources and services.